Ingeniero Alberto Acuna Ongay International Airport
MMCP : now visible

Airfield :











YOU CAN JOIN US ON...

 
LOGIN :

Register | Disclaimer

   EN    FR    IT 

 









Legend :    VFR   Marginal VFR   IFR   Intensive IFR   Very Intensive IFR
Visi :
Ceiling :
>= 8 km
>= 3000ft
5 to 8 km
1000 to 3000 ft
1500m to 5 km
500 to 1000 ft
800 to 1500m
200 to 500 ft
< 800m
< 200 ft
Symbols :   Thunderstorms  Fog  Heavy snow  Heavy precipitations  Wind > 20 kt






- Airport Elevation : 34 ft
- IATA code : CPE


MMCP - Ingeniero Alberto Acuna Ongay International

CURRENT METAR :
  • 172345Z 00000KT 5SM OVC120 29/25 A2980 RMK SLP080 52009 955 8/07/ HZY

EXPIRED METARs :
  • 172245Z 00000KT 5SM SCT030 OVC120 29/25 A2979 RMK 8/47/ DSNT CB E, HZY
  • 172144Z 00000KT 5SM SCT030 OVC120 30/25 A2978 RMK 8/47/ HZY

TAF TAF MMCP
Valid from the 17 at 18:00 until the 18 at 18:00 UTC


171721Z 1718/1818 17012KT 6SM -RA SCT015CB BKN100 BKN250
TEMPO 1719/1723 2SM TSRA BKN010CB OVC080
FM180200 15008KT P6SM SCT015 BKN250
BECMG 1817/1818 17012KT
MMFR FIR / North America



MET'MAP, your aeronautical weather chart ! - Copyright ORBIFLY December 2007 - Disclaimer

ORBIFLY MET'MAP TEAM :

Programming & Development : Alexandra Zaïnal
Concept & original design : Baudouin d'Aumeries
Assistance for programming : Marc-Olivier Méhu
Technical & hardware support : Manuel Goepfert

Contact : metmap@orbifly.com




SOURCES & CREDITS :

   NOAA       Earth
Advisory